STARLINK-32873, 62857

Orbit data source: Space-Track

STARLINK-32873, 62857 is a payload satellite owned by SpaceX/Seattle (US) in LEO that was launched on Sat, 01 Feb 2025 UTC via an FALCON 9 launch vehicle from the Air Force Western Test Range (AFWTR). Payload-class satellites include a variety of spacecraft equipped with specific instruments for various scientific and technological missions. These include communications satellites like Starlink; space stations such as the ISS; scientific satellites like the Hubble; Earth observation satellites from companies like Planet Labs, Umbra, and HawkEye 360; GPS; miniature CubeSats for education and research; and military/defense satellites.

Loading next visibility...
Identifier
62857, 2025-022D
Orbit
LEO
Country
Flag of USUS
Related business
Manufacturer
SpaceX/Seattle
Mission
Operational Commercial Communications
Bus & Motor
STARLINK V2M, Unknown motor
Mass
730 kg wet, ~700 kg dry
Launch date (UTC)
2025-02-01 (11 months ago)
Launch vehicle
FALCON 9
Launch site
Air Force Western Test Range (AFWTR)
Object type
Payload
Rocket body
Debris
Shape & HBR
Box + 2 Pan, 17.7 m
Radar Cross Section
33.884 m², Large (>1 m²)

Expand to show TLE details & history
Last TLE update: 20 hours ago

TLE from 20 hours ago
0 STARLINK-32873
1 62857U 25022D   25351.76676009  .00020945  00000-0  71731-3 0  9998
2 62857  53.1599 150.4061 0001127  82.3743 277.7386 15.30199651 49358
Epoch: 2025-12-17T18:24Z
TLE epoch observation values (Epoch: 2025-12-17T18:24:08.071Z)
Latitude
-0.00001°
Longitude
147.74056°
Altitude
476.012 km
Speed
7.629 km/s
True Right ascension
10h 01m 37s
True Declination
0° 00' 00"
Sunlit
Object was in full shadow at epoch
Visualization orbit readout
Latitude
Unknown
Longitude
Unknown
Altitude
Unknown
Speed
Unknown
Apparent Right ascension
Unknown
Apparent Declination
Unknown
Sunlit
N/A
Visualization observer readout
Local Sidereal Time
12:56:32
Azimuth
Unknown
Elevation
Unknown
Doppler factor
Unknown
Orbital elements
Apogee altitude
476.245 km
Perigee altitude
474.7 km
Semi-major axis
6,853.61 km
Eccentricity
0.00011
Inclination
53.1599°
RAAN
150.4061°
Arg. of periapsis
82.3743°
True anomaly
277.7258°
Mean anomaly
277.7386°
Eccentric anomaly
277.7322°
Mean motion
3.82529 °/min
Orbital period
94.11 mins
BSTAR
0.00071731
Loading maneuver chart data...
Computing Atmospheric mass density...
Loading historical data...
Loading historical data...
Loading historical data...
Loading historical data...
Loading historical data...
Loading historical data...
Loading historical data...

Documentation

Showing up to 5 results
|